Location: Cheching
(60.0667°N, 164.2167°W)
Time: 10:49:16
(UTC+00:00)

NOAA 19 - Pass Details

Date: 21 January 2021
Orbit: 840 x 862 km, 99.2° (Epoch: 26 February)

Event Time Altitude Azimuth Distance (km) Brightness Sun altitude
Rises 17:21:12 0° 20° (NNE) 3,435 8.5 -15.4°
Reaches altitude 10° 17:23:46 10° 28° (NNE) 2,491 7.8 -15.1°
Maximum altitude 17:28:56 39° 97° (E) 1,246 6.7 -14.5°
Drops below altitude 10° 17:34:02 10° 166° (SSE) 2,464 8.0 -13.9°
Sets 17:36:32 0° 174° (S) 3,392 8.6 -13.6°
